Presure
157 151 155 154 148 105 76 96 122 121 100 97 143 152 149 151 158 151 152 158 164 151 147 169 145 149 141 174 168 164 149 176 171 172 151 151 174 157 206 166 211 101 126
111 141 144 148 143 157 89 101 78 86 97 95 77 152 152 151 162 153 157 162 152 132 163 163 140 161 161 166 158 167 171 168 171 175 169 197 135 149 156 171 168 173 218
172 144 154 159 150 79 78 77 87 83 81 86 93 150 145 162 160 121 153 165 147 169 147 154 168 164 168 174 176 168 169 167 170 179 167 186 134 151 164 120 154 173 159
175 165 129 155 183 166 161 176 92 78 131 88 167 166 162 165 162 161 143 169 168 163 142 158 164 163 163 167 171 159 173 173 153 154 154 167 131 163 200 178 213 217 170
178 178 139 77 160 152 148 165 156 173 174 158 152 156 167 147 171 143 171 167 183 155 142 136 170 170 162 179 177 168 178 160 191 150 147 178 197 173 199 208 172 206 212
161 166 164 163 138 165 164 168 159 196 197 162 161 169 171 181 183 163 185 159 170 166 150 165 163 154 190 172 207 190 175 192 143 201 173 185 171 187 159 189 185 226 206
169 177 181 160 157 187 177 169 185 174 167 163 177 182 170 178 160 169 180 178 151 169 174 171 174 209 187 197 199 151 204 214 201 150 200 176 166 189 194 195 227 225 215
170 175 154 164 175 160 172 170 163 172 171 184 170 178 163 172 164 174 161 167 168 138 172 155 179 187 180 146 181 195 91 197 191 181 170 185 186 201 183 178 175 168 193
168 147 173 172 163 197 184 163 179 158 165 162 154 165 168 195 203 166 182 172 180 161 183 200 171 187 162 197 187 206 185 191 187 178 191 206 181 181 169 188 189 195 203
173 189 186 168 189 157 170 172 99 207 194 212 181 178 205 167 181 161 181 195 194 183 180 182 188 189 180 194 166 182 181 188 137 181 186 204 178 177 181 184 199 193 207
158 163 151 151 157 212 209 156 201 196 147 223 128 149 195 183 134 157 189 164 176 173 165 192 162 183 144 170 182 175 130 180 186 187 177 192 178 171 188 192 192 193 194
162 164 172 143 153 149 225 191 191 198 177 184 158 152 172 168 176 159 179 158 116 172 171 162 173 170 156 176 170 174 178 177 184 199 180 187 196 198 174 184 192 202 195
154 148 162 161 160 156 166 170 170 147 182 169 173 186 185 177 157 186 177 173 165 170 186 178 191 201 173 168 188 198 186 188 178 202 187 216 224 228 180 206 189 210 224
153 169 156 165 166 176 164 192 177 177 188 181 197 203 190 150 216 169 165 165 206 192 169 207 180 163 161 195 184 201 190 221 212 189 222 210 181 230 241 212 215 225 140
180 168 197 162 166 179 182 188 152 175 167 175 167 162 175 168 182 179 207 219 203 189 212 157 167 194 185 205 206 209 248 216 226 199 205 191 193 232 221 220 226 236 230
182 199 162 181 179 176 178 177 176 186 184 168 191 173 152 182 197 171 191 174 209 187 168 132 191 190 204 190 183 227 174 201 228 228 187 196 212 208 218 234 236 239 245
158 159 156 161 164 169 169 192 169 178 157 172 182 152 167 176 184 155 191 180 189 209 200 192 198 186 203 226 206 209 216 227 242 179 193 232 233 235 239 241 245 253 257
162 158 179 198 169 170 189 181 158 156 222 207 222 195 184 213 221 193 185 186 194 205 199 205 218 190 217 207 237 232 232 234 228 245 248 242 246 251 249 251 261 270 276
190 183 201 192 148 169 156 186 204 205 161 185 159 204 175 193 207 184 195 174 202 192 218 196 216 221 243 222 236 239 253 249 258 258 270 248 271 275 276 281 306 263 298
177 197 215 219 152 144 177 173 179 194 178 188 197 197 189 196 202 175 188 229 194 217 235 189 227 238 240 252 275 275 263 272 274 262 292 270 270 269 285 300 281 231 304
190 198 175 181 187 189 159 173 162 152 203 194 189 178 167 202 189 239 210 230 217 232 249 235 241 250 280 297 299 292 282 306 285 317 276 282 275 272 256 245 221 304 304
153 155 184 155 199 199 133 200 198 163 194 207 200 191 237 225 229 220 214 239 178 249 250 300 279 288 330 332 273 340 322 357 366 330 318 334 307 273 261 282 296 299 308
197 201 189 187 210 200 209 206 207 208 191 197 212 202 203 229 222 220 233 281 211 297 290 294 324 275 303 325 340 377 358 357 326 319 299 311 311 300 284 270 279 270 278
205 205 203 204 207 204 201 210 223 220 227 225 225 224 228 234 261 266 290 296 314 296 255 238 263 262 308 329 336 330 343 348 329 310 294 307 294 293 263 254 278 277 292
226 226 227 227 227 230 228 232 266 303 268 284 310 275 283 296 303 289 301 266 225 285 304 295 294 304 339 320 287 321 331 324 298 290 300 276 274 271 258 258 272 280 269
319 266 270 274 271 268 298 265 268 300 272 277 301 257 288 275 240 227 242 286 309 303 290 290 289 292 310 305 309 314 324 326 310 318 288 277 284 276 256 287 278 281 267
Wind_Speed
60 58 60 59 55 37 26 34 45 46 40 40 55 59 59 60 63 61 63 66 70 60 53 70 54 55 56 75 69 64 61 77 68 71 52 53 69 52 75 59 82 22 56
43 53 57 55 56 61 33 40 30 36 43 43 36 62 62 62 67 62 62 68 60 50 64 65 55 64 62 68 61 72 73 69 72 77 65 83 48 52 54 63 63 52 81
62 54 65 71 63 31 30 35 38 40 41 49 53 60 56 69 69 45 63 73 58 76 53 61 72 70 72 77 80 72 74 70 73 81 65 77 50 56 60 48 55 63 44
79 70 52 62 68 73 69 64 44 40 61 56 74 74 72 72 68 67 55 73 70 72 56 64 72 72 70 73 76 65 78 76 59 59 58 63 51 60 82 68 87 85 52
70 72 57 33 72 67 63 71 68 76 74 66 62 67 73 59 73 57 70 70 74 66 61 59 76 77 70 83 80 72 79 64 81 57 55 72 82 66 79 85 60 81 82
71 77 77 74 61 78 76 77 70 73 75 69 69 75 75 78 78 68 73 65 71 71 63 71 70 67 84 76 87 85 72 83 57 78 71 77 67 73 61 81 71 83 73
84 86 86 77 68 88 87 81 85 80 74 67 76 82 70 78 61 71 76 74 65 73 78 78 81 87 85 85 77 63 78 85 81 64 82 74 71 78 78 76 88 83 83
85 88 73 76 88 65 81 78 70 81 79 87 78 79 64 73 67 75 68 69 73 61 80 68 83 85 83 62 76 80 38 75 78 73 72 78 80 86 76 70 65 61 73
85 69 86 85 80 93 89 72 85 69 75 68 59 70 71 87 81 72 83 76 84 70 85 87 78 83 73 77 75 83 74 75 75 74 82 95 76 77 71 79 78 80 82
91 105 100 79 95 61 71 77 58 84 95 92 86 82 87 72 81 69 82 85 86 86 85 74 82 79 77 78 72 77 75 81 67 75 77 93 78 78 79 80 85 79 87
72 74 63 61 64 100 94 72 96 90 73 96 58 57 87 83 62 67 87 67 78 77 72 77 73 79 67 71 78 75 68 78 81 82 75 86 77 75 85 85 83 82 83
76 74 83 65 72 65 95 95 88 96 79 88 65 64 74 69 76 64 78 69 55 77 76 72 76 74 70 81 75 80 83 81 85 96 79 85 90 92 78 81 87 88 86
69 79 80 81 75 80 88 88 88 69 91 81 85 91 90 80 65 86 79 79 72 81 86 83 89 98 82 78 90 99 89 91 84 96 88 104 101 94 78 84 88 90 81
77 95 79 95 95 100 87 102 97 98 108 96 113 103 100 61 115 72 71 69 100 91 80 108 87 74 78 97 90 102 91 122 108 92 105 99 80 89 83 93 89 83 66
104 91 109 92 97 106 107 109 73 100 90 99 85 75 93 78 98 94 111 114 103 93 116 76 82 97 89 109 115 113 117 111 110 93 97 95 96 87 86 85 83 77 76
106 117 98 112 110 107 107 108 107 115 110 93 115 99 68 89 108 86 98 86 113 90 82 66 99 103 115 97 94 124 87 102 108 104 97 97 93 92 89 82 78 76 71
101 101 96 96 103 107 105 123 100 109 86 99 105 81 91 95 99 83 98 90 100 124 114 103 111 103 122 131 114 113 110 110 110 88 94 95 89 87 82 79 76 72 69
102 102 116 126 111 111 127 119 89 84 123 106 111 113 97 122 120 107 94 98 115 130 119 126 130 108 123 114 122 116 114 111 106 103 97 92 87 83 79 77 71 66 61
122 122 130 121 88 109 93 113 123 125 86 105 80 124 93 122 135 107 125 98 129 118 140 115 125 128 132 117 123 118 113 107 101 97 92 88 83 78 74 68 55 61 45
110 125 122 124 90 81 103 108 109 118 110 116 127 128 113 124 135 97 115 149 117 131 140 103 130 131 126 122 115 108 104 99 94 88 80 79 75 72 62 56 56 64 44
123 129 108 115 124 128 85 103 89 79 134 128 122 107 90 139 121 149 133 141 129 139 143 134 130 125 114 99 94 93 94 82 84 70 78 73 69 66 67 64 66 48 41
85 89 121 86 138 139 66 138 138 94 128 148 138 122 150 146 141 137 128 144 99 140 134 96 109 98 69 66 96 63 67 53 46 49 51 42 52 58 59 48 41 38 33
136 139 128 126 154 137 147 140 138 138 126 128 137 130 127 145 136 134 137 114 98 89 93 86 60 95 76 61 55 41 45 39 34 26 47 34 36 39 41 44 39 41 36
142 142 141 140 142 138 131 134 144 141 147 146 144 141 143 144 135 122 92 83 67 77 100 102 95 93 60 50 42 40 39 32 30 34 39 31 35 34 41 44 36 35 31
151 148 150 149 149 154 151 153 126 76 123 98 72 110 100 80 74 79 73 94 106 78 55 59 60 55 40 41 52 36 31 24 28 33 33 35 35 36 39 40 35 31 33
89 118 116 111 112 110 78 111 105 74 96 93 71 108 80 90 105 110 104 72 53 53 57 56 53 50 36 38 33 29 28 28 26 29 31 34 34 34 39 30 30 32 35
Wind_Direction
262 268 270 273 276 275 283 285 281 284 292 296 287 287 290 292 292 298 302 303 301 304 312 311 309 305 308 315 316 315 316 320 320 322 314 318 321 319 329 324 335 306 309
264 262 267 267 268 275 280 281 294 292 294 294 295 288 291 293 291 296 299 301 307 302 308 311 302 308 310 313 312 317 318 318 319 319 321 319 305 315 318 321 326 324 329
259 265 265 264 265 276 285 290 287 296 298 299 295 288 291 290 292 299 303 301 305 305 303 306 308 311 312 314 314 314 315 316 317 317 318 316 306 314 317 312 313 322 307
258 261 265 266 262 263 271 267 290 291 283 294 280 283 285 288 293 295 301 300 303 304 299 306 309 308 309 309 310 311 312 313 311 312 312 318 305 317 326 320 326 327 316
256 260 265 275 267 269 270 274 275 276 278 280 283 286 288 291 292 298 298 302 302 300 298 298 306 306 306 307 308 309 311 309 314 312 310 313 322 318 324 326 318 326 325
264 265 266 266 268 270 271 272 275 272 272 280 282 286 289 292 294 296 296 297 300 300 298 301 302 302 305 305 306 309 305 307 308 316 313 317 315 319 315 320 319 322 322
264 263 261 266 269 267 271 276 276 279 282 281 287 288 290 295 293 296 299 298 294 301 302 302 302 302 305 306 306 299 312 320 317 309 316 313 310 317 318 321 320 321 323
265 266 266 266 267 274 273 276 278 281 281 284 288 287 288 293 293 293 294 291 297 290 300 298 302 302 305 298 309 310 303 309 311 313 308 313 314 318 315 315 313 314 318
265 265 266 268 267 267 269 277 274 281 282 283 281 287 293 291 290 294 296 296 297 295 296 297 300 298 300 300 301 311 305 307 310 310 313 316 310 312 310 314 315 317 320
261 263 267 269 271 270 281 279 276 275 279 275 281 288 286 292 292 291 294 293 294 295 296 298 292 295 296 305 297 306 305 310 302 309 310 314 309 309 310 312 314 316 317
264 270 271 270 277 273 274 276 278 278 278 277 271 279 285 288 281 290 292 295 294 294 295 297 296 297 295 298 306 303 298 307 308 309 305 311 307 306 311 312 313 315 316
272 276 275 268 274 276 273 276 279 280 279 284 281 278 286 285 287 289 290 292 291 295 295 293 297 299 292 304 302 305 305 305 306 309 307 307 308 310 306 308 312 310 313
269 266 277 273 280 277 281 279 280 275 284 286 288 289 290 291 284 292 293 295 296 295 298 298 302 305 301 301 305 307 304 305 304 306 303 308 306 304 306 307 310 306 305
270 274 276 278 280 279 281 280 285 287 288 289 289 285 289 278 292 293 291 294 299 299 294 303 301 295 292 304 301 305 304 304 305 305 303 305 303 302 301 300 302 302 297
268 272 265 275 277 278 280 279 279 282 285 286 288 290 292 290 293 293 296 298 299 298 301 291 296 303 300 304 303 303 300 303 303 302 302 303 301 300 300 300 299 299 299
266 261 273 271 274 276 277 278 280 281 281 284 282 288 287 285 289 291 294 292 299 297 293 298 302 299 301 300 300 300 302 302 301 300 299 298 299 298 298 297 296 296 296
267 269 272 271 275 275 277 274 280 278 282 281 282 283 287 287 291 291 294 292 298 299 300 300 299 299 302 298 300 300 298 299 299 298 296 297 296 294 294 294 293 291 290
266 269 266 262 271 273 271 275 279 280 274 277 278 284 286 291 286 294 296 300 301 298 299 297 293 298 297 297 296 298 297 298 296 295 294 294 294 292 292 290 290 287 283
260 262 258 262 273 270 274 271 272 274 278 281 276 283 294 288 286 297 293 296 294 297 292 295 294 295 296 293 295 297 295 294 293 292 290 290 287 287 286 285 280 283 267
260 258 259 261 270 271 268 274 279 275 279 285 282 283 283 290 288 294 293 286 292 289 291 291 294 293 293 294 295 294 293 292 291 290 287 286 284 284 284 281 281 284 260
262 262 266 268 269 270 275 278 277 279 271 279 281 285 292 284 289 282 286 286 289 292 291 291 291 292 291 289 291 290 290 287 288 283 285 282 282 282 282 281 281 268 260
276 278 264 279 263 265 268 271 273 284 279 275 277 282 276 278 281 283 287 288 290 288 290 287 291 288 289 289 291 287 290 288 280 281 275 274 275 278 279 276 273 265 258
259 258 263 265 259 266 265 268 269 271 277 277 275 278 280 280 284 285 285 286 289 286 287 288 290 290 292 289 293 292 287 284 277 266 272 270 268 266 271 272 269 266 259
253 256 258 260 262 264 267 268 269 271 272 274 276 278 278 279 280 283 284 286 287 287 289 292 289 292 292 294 294 292 291 284 253 252 271 263 269 268 267 271 262 259 250
256 258 259 260 262 263 265 267 268 275 269 274 281 274 277 281 282 282 283 284 289 287 285 286 288 294 294 296 293 292 287 259 266 261 258 267 267 264 265 267 261 247 246
263 253 256 258 258 261 268 264 265 274 269 272 278 272 277 278 278 283 282 283 279 282 283 287 290 294 293 295 293 291 279 264 259 247 253 263 259 260 265 249 249 241 241